Location: State Camp
(41.2367°N, 77.7828°W)
Time: 12:18:23
(UTC-05:00)

Amateur Radio Satellites - All Passes

Search period start: 24 February 2017 11:48
Search period end: 25 February 2017 11:48
Location: State Camp, 41.2367°N, 77.7828°W

Satellite Date Start Highest point End Downlink Frequencies (MHz)
Time Altitude Azimuth
LO-87 24 Feb 11:55:06 11:58:11 27° 289° (WNW) 12:01:16 145.935 - 145.965
ESTCUBE 1 24 Feb 12:04:54 12:09:19 60° 286° (WNW) 12:13:42 437.505/2401.250
ISS 24 Feb 12:06:42 12:08:31 14° 4° (N) 12:10:19 437.550
BUGSAT 1 24 Feb 12:07:01 12:11:02 67° 258° (WSW) 12:15:08 437.445
Oscar 19 24 Feb 12:19:19 12:24:13 46° 70° (ENE) 12:29:08 437.125/150
50 SAT 24 Feb 12:28:19 12:31:44 56° 101° (E) 12:35:08 437.505
DX 1 24 Feb 12:31:00 12:35:02 35° 98° (E) 12:39:02 434.975-435.025
VELOX 1 24 Feb 12:35:18 12:39:44 86° 284° (WNW) 12:44:09 145.980
Tancredo 1 24 Feb 12:35:24 12:37:25 15° 11° (N) 12:39:24 437.200
AO-85 24 Feb 12:42:43 12:46:10 29° 49° (NE) 12:49:39 145.980
UKube-1 24 Feb 12:45:28 12:49:28 36° 98° (E) 12:53:28 .
SPROUT 24 Feb 12:52:13 12:56:29 67° 286° (WNW) 13:00:46 437.525
Gurwin Techsat 1B 24 Feb 12:54:42 12:59:53 55° 71° (ENE) 13:05:04 435.225
ITAMSAT 1 24 Feb 12:54:51 12:56:00 11° 57° (ENE) 12:57:10 435.822/435.867
ISS 24 Feb 13:42:53 13:45:48 28° 24° (NNE) 13:48:41 437.550
AO-7 24 Feb 13:52:06 13:59:51 44° 62° (ENE) 14:07:35 .
ITUPSAT 1 24 Feb 13:58:35 14:01:32 16° 92° (E) 14:04:27 437.325
Oscar 19 24 Feb 13:59:53 14:03:44 21° 267° (W) 14:07:37 437.125/150
BEESAT 24 Feb 14:05:32 14:08:58 19° 93° (E) 14:12:22 436.000
DX 1 24 Feb 14:07:43 14:10:59 21° 294° (WNW) 14:14:14 434.975-435.025
Tancredo 1 24 Feb 14:11:12 14:14:19 44° 30° (NNE) 14:17:25 437.200
UKube-1 24 Feb 14:22:06 14:25:16 20° 294° (WNW) 14:28:25 .
AO-85 24 Feb 14:23:15 14:26:26 24° 246° (WSW) 14:29:38 145.980
ITAMSAT 1 24 Feb 14:29:23 14:34:34 79° 73° (ENE) 14:39:49 435.822/435.867
BEESAT 3 24 Feb 14:32:26 14:35:50 26° 48° (NE) 14:39:14 437.485
Gurwin Techsat 1B 24 Feb 14:36:31 14:40:09 18° 268° (W) 14:43:48 435.225
MOZHAYETS 4 24 Feb 14:36:40 14:39:09 14° 90° (E) 14:41:37
BEESAT 2 24 Feb 15:08:16 15:11:43 26° 48° (NE) 15:15:09 435.950
ISS 24 Feb 15:19:13 15:22:21 42° 222° (SW) 15:25:28 437.550
ITUPSAT 1 24 Feb 15:35:00 15:39:41 54° 288° (WNW) 15:44:20 437.325
BEESAT 24 Feb 15:42:23 15:46:57 44° 289° (WNW) 15:51:28 436.000
AO-7 24 Feb 15:44:42 15:52:33 44° 260° (W) 16:00:27 .
Tancredo 1 24 Feb 15:47:54 15:50:25 21° 227° (SW) 15:52:54 437.200
BEESAT 3 24 Feb 16:09:54 16:13:26 30° 245° (WSW) 16:16:56 437.485
MOZHAYETS 4 24 Feb 16:12:08 16:16:39 56° 287° (WNW) 16:21:07
ITAMSAT 1 24 Feb 16:12:33 16:14:37 12° 271° (W) 16:16:42 435.822/435.867
PCSat 24 Feb 16:26:16 16:31:40 76° 117° (ESE) 16:37:05 145.827
RS-15 24 Feb 16:27:18 16:37:44 38° 105° (ESE) 16:48:31 29.354- 29.394
DOVE 4 24 Feb 16:33:19 16:36:13 19° 66° (ENE) 16:39:08 437.250
M-CUBED/EXP-1 PRIME 24 Feb 16:39:48 16:41:36 13° 99° (E) 16:43:27 437.505
KAITUO 1B 24 Feb 16:45:28 16:48:03 18° 67° (ENE) 16:50:39 145.475/437.950
BEESAT 2 24 Feb 16:45:55 16:49:29 30° 246° (WSW) 16:53:02 435.950
XW-2F 24 Feb 16:48:06 16:51:07 22° 69° (ENE) 16:54:09 145.980 - 146.000
KKS-1 24 Feb 16:50:01 16:54:31 87° 283° (WNW) 16:59:00 437.445
XW-2D 24 Feb 16:51:54 16:55:08 26° 70° (ENE) 16:58:23 145.860 - 145.880
XW-2B 24 Feb 16:56:48 17:00:08 29° 71° (ENE) 17:03:30 145.730 - 145.750
XW-2C 24 Feb 17:05:09 17:08:42 36° 72° (ENE) 17:12:16 145.795 - 145.815
CUBESAT XI-V 24 Feb 17:08:43 17:13:20 89° 294° (WNW) 17:17:56 437.345
CUTE-I 24 Feb 17:09:49 17:14:55 47° 70° (ENE) 17:20:01 437.470
NUDT-PHONESAT 24 Feb 17:20:23 17:23:58 45° 74° (ENE) 17:27:36 437.300
LilacSat-2 24 Feb 17:20:40 17:24:29 60° 75° (ENE) 17:28:20 437.200
NO-84 24 Feb 17:24:13 17:27:26 81° 135° (SE) 17:30:59 435.350 FM
HO-68 24 Feb 17:26:21 17:31:41 23° 57° (ENE) 17:37:01 435.675
STARS 24 Feb 17:26:46 17:31:13 78° 284° (WNW) 17:35:39 437.465
DOVE 4 24 Feb 18:09:54 18:13:41 34° 263° (W) 18:17:31 437.250
PCSat 24 Feb 18:11:50 18:15:40 19° 316° (NW) 18:19:31 145.827
M-CUBED/EXP-1 PRIME 24 Feb 18:12:35 18:16:12 48° 291° (WNW) 18:20:06 437.505
KAITUO 1B 24 Feb 18:18:24 18:21:50 32° 263° (W) 18:25:17 145.475/437.950
XW-2F 24 Feb 18:21:57 18:25:09 25° 265° (W) 18:28:23 145.980 - 146.000
AAUSAT CUBESAT 2 24 Feb 18:22:52 18:23:54 11° 62° (ENE) 18:24:55 437.432
XW-2D 24 Feb 18:26:18 18:29:18 21° 266° (W) 18:32:19 145.860 - 145.880
SEEDS 24 Feb 18:28:10 18:31:39 25° 69° (ENE) 18:35:08 437.485
XW-2B 24 Feb 18:31:32 18:34:21 19° 266° (W) 18:37:12 145.730 - 145.750
RS-15 24 Feb 18:37:33 18:49:28 68° 308° (NW) 19:01:52 29.354- 29.394
XW-2C 24 Feb 18:40:43 18:43:02 15° 268° (W) 18:45:22 145.795 - 145.815
XW-2A 24 Feb 18:47:29 18:50:52 77° 258° (WSW) 18:54:18 145.665 - 145.685
STRAND 1 24 Feb 18:49:31 18:53:50 27° 95° (E) 18:58:08 437.568
CUTE-I 24 Feb 18:51:06 18:55:10 22° 267° (W) 18:59:16 437.470
NUDT-PHONESAT 24 Feb 18:56:40 18:58:09 12° 269° (W) 18:59:38 437.300
NO-84 24 Feb 19:03:06 19:05:34 18° 338° (NNW) 19:08:13 435.350 FM
CUTE 1.7 + AOD 2 24 Feb 19:03:52 19:08:09 85° 255° (WSW) 19:12:27 437.475
HO-68 24 Feb 19:11:32 19:18:42 74° 256° (WSW) 19:25:54 435.675
CUBEBUG 2 24 Feb 19:13:10 19:17:27 53° 73° (ENE) 19:21:55 437.445
AO-73 24 Feb 19:28:48 19:32:34 27° 68° (ENE) 19:36:23 145.935
Oscar 11 24 Feb 19:36:41 19:40:24 28° 69° (ENE) 19:44:08 .
YUBILEINY 24 Feb 19:46:58 19:52:01 16° 60° (ENE) 19:57:01 435.215
UWE-3 24 Feb 19:52:12 19:56:38 88° 75° (ENE) 20:01:14 435.000/436.395/437.385
AAUSAT CUBESAT 2 24 Feb 19:54:38 19:58:46 69° 259° (WSW) 20:02:56 437.432
DELFI C3 24 Feb 20:01:27 20:03:49 16° 66° (ENE) 20:06:12 145.870
SEEDS 24 Feb 20:03:36 20:07:14 27° 264° (W) 20:10:52 437.485
ZACube-1 24 Feb 20:15:06 20:19:33 88° 259° (W) 20:24:07 437.345
STRAND 1 24 Feb 20:28:21 20:33:04 37° 291° (WNW) 20:37:45 437.568
NO-84 24 Feb 20:43:47 20:44:35 11° 360° (N) 20:45:24 435.350 FM
CUBEBUG 2 24 Feb 20:52:01 20:54:26 14° 270° (W) 20:56:53 437.445
RS-15 24 Feb 20:54:53 21:04:57 28° 337° (NNW) 21:15:10 29.354- 29.394
AO-73 24 Feb 21:04:52 21:08:41 28° 265° (W) 21:12:37 145.935
HO-68 24 Feb 21:05:25 21:07:33 11° 273° (W) 21:09:40 435.675
FO-29 24 Feb 21:11:08 21:13:25 11° 82° (E) 21:15:38 435.910
Oscar 11 24 Feb 21:12:52 21:16:29 25° 265° (W) 21:20:08 .
SO-50 24 Feb 21:15:40 21:18:23 15° 109° (ESE) 21:21:05 436.795
ESTCUBE 1 24 Feb 21:30:09 21:32:10 13° 62° (ENE) 21:34:12 437.505/2401.250
DELFI C3 24 Feb 21:34:33 21:38:17 40° 262° (W) 21:42:02 145.870
YUBILEINY 24 Feb 21:41:36 21:50:23 79° 82° (E) 21:59:04 435.215
UNISAT 6 24 Feb 21:50:49 21:55:13 38° 97° (E) 21:59:33 437.425
TIGRISAT 24 Feb 21:51:23 21:55:44 36° 97° (E) 22:00:00 435.000
PRISM 24 Feb 21:54:06 21:58:11 81° 285° (WNW) 22:02:16 437.425
O/OREOS (USA 219) 24 Feb 22:01:41 22:05:04 22° 102° (ESE) 22:08:30 437.305
NO-84 24 Feb 22:21:01 22:23:39 17° 21° (NNE) 22:26:24 435.350 FM
LO-87 24 Feb 22:30:30 22:34:01 71° 258° (WSW) 22:37:34 145.935 - 145.965
DUCHIFAT 1 24 Feb 22:51:16 22:52:27 11° 90° (E) 22:53:39 145.980
FO-29 24 Feb 22:52:11 22:59:52 70° 101° (E) 23:06:48 435.910
SO-50 24 Feb 22:53:44 22:58:22 62° 305° (NW) 23:02:58 436.795
EO-79 24 Feb 22:59:48 23:02:40 17° 93° (E) 23:05:30 145.935-145.965
50 SAT 24 Feb 23:02:47 23:05:31 22° 69° (ENE) 23:08:16 437.505
ESTCUBE 1 24 Feb 23:03:55 23:08:24 67° 258° (WSW) 23:12:55 437.505/2401.250
RS-15 24 Feb 23:13:35 23:23:11 25° 13° (NNE) 23:32:40 29.354- 29.394
POLYITAN 1 24 Feb 23:16:29 23:20:08 26° 96° (E) 23:23:45 437.675
NANOSAT C BR1 24 Feb 23:16:42 23:20:12 24° 95° (E) 23:23:41 145.865
QB50P2 24 Feb 23:19:18 23:23:07 30° 97° (E) 23:26:54 145.880/145.840
DX 1 24 Feb 23:26:28 23:30:17 31° 69° (ENE) 23:34:07 434.975-435.025
UNISAT 6 24 Feb 23:28:00 23:31:40 23° 294° (WNW) 23:35:17 437.425
TIGRISAT 24 Feb 23:28:26 23:32:11 24° 293° (WNW) 23:35:55 435.000
VELOX 1 24 Feb 23:32:09 23:36:32 82° 74° (ENE) 23:40:55 145.980
PCSat 24 Feb 23:32:58 23:34:59 12° 36° (NE) 23:37:01 145.827
AIST 2D 24 Feb 23:33:26 23:37:01 76° 102° (ESE) 23:40:33 435.315
UKube-1 24 Feb 23:39:53 23:43:40 31° 69° (ENE) 23:47:28 .
YUBILEINY 24 Feb 23:40:07 23:46:06 21° 281° (W) 23:52:05 435.215
O/OREOS (USA 219) 24 Feb 23:40:08 23:44:14 35° 299° (WNW) 23:48:24 437.305
SPROUT 24 Feb 23:45:05 23:49:20 90° 354° (N) 23:53:37 437.525
BUGSAT 1 24 Feb 23:49:30 23:52:23 18° 93° (E) 23:55:16 437.445
NO-84 24 Feb 23:57:56 00:02:01 60° 39° (NE) 00:06:20 435.350 FM
DUCHIFAT 1 25 Feb 00:24:18 00:28:32 63° 286° (WNW) 00:32:44 145.980
Oscar 19 25 Feb 00:32:03 00:35:07 16° 91° (E) 00:38:11 437.125/150
EO-79 25 Feb 00:34:34 00:38:35 40° 288° (WNW) 00:42:35 145.935-145.965
50 SAT 25 Feb 00:35:51 00:38:33 21° 265° (W) 00:41:17 437.505
FO-29 25 Feb 00:38:07 00:44:05 26° 301° (WNW) 00:49:43 435.910
SO-50 25 Feb 00:38:18 00:39:45 11° 325° (NW) 00:41:12 436.795
NANOSAT C BR1 25 Feb 00:52:12 00:55:53 29° 291° (WNW) 00:59:33 145.865
POLYITAN 1 25 Feb 00:52:14 00:55:50 27° 292° (WNW) 00:59:26 437.675
QB50P2 25 Feb 00:55:20 00:58:45 23° 293° (WNW) 01:02:09 145.880/145.840
DX 1 25 Feb 01:03:03 01:06:29 23° 265° (W) 01:09:56 434.975-435.025
ITUPSAT 1 25 Feb 01:05:14 01:08:41 20° 64° (ENE) 01:12:09 437.325
Gurwin Techsat 1B 25 Feb 01:11:37 01:15:41 22° 93° (E) 01:19:42 435.225
BEESAT 25 Feb 01:11:50 01:15:36 23° 65° (ENE) 01:19:22 436.000
PCSat 25 Feb 01:14:11 01:19:34 59° 57° (ENE) 01:24:54 145.827
UKube-1 25 Feb 01:16:19 01:19:43 23° 265° (W) 01:23:08 .
BUGSAT 1 25 Feb 01:23:56 01:27:53 39° 289° (WNW) 01:31:50 437.445
RS-15 25 Feb 01:27:37 01:39:38 52° 45° (NE) 01:51:10 29.354- 29.394
NO-84 25 Feb 01:36:17 01:39:29 21° 234° (SW) 01:42:46 435.350 FM
MOZHAYETS 4 25 Feb 01:38:48 01:41:24 15° 63° (ENE) 01:44:02
AO-7 25 Feb 01:58:06 01:59:34 10° 86° (E) 02:01:01 .
Oscar 19 25 Feb 02:09:47 02:14:50 61° 287° (WNW) 02:19:52 437.125/150
ITUPSAT 1 25 Feb 02:41:33 02:46:09 46° 261° (W) 02:50:48 437.325
ITAMSAT 1 25 Feb 02:42:43 02:47:11 27° 96° (E) 02:51:34 435.822/435.867
BEESAT 25 Feb 02:48:41 02:53:08 38° 262° (W) 02:57:37 436.000
Gurwin Techsat 1B 25 Feb 02:50:44 02:55:50 47° 290° (WNW) 03:00:55 435.225
PCSat 25 Feb 02:58:42 03:02:27 19° 255° (WSW) 03:06:11 145.827
MOZHAYETS 4 25 Feb 03:13:28 03:18:03 60° 260° (W) 03:22:40
M-CUBED/EXP-1 PRIME 25 Feb 03:26:39 03:28:18 13° 61° (ENE) 03:29:57 437.505
RS-15 25 Feb 03:40:34 03:52:16 54° 249° (WSW) 04:03:28 29.354- 29.394
AO-7 25 Feb 03:45:33 03:53:50 65° 105° (ESE) 04:02:02 .
KKS-1 25 Feb 03:47:41 03:52:06 85° 78° (ENE) 03:56:34 437.445
CUBESAT XI-V 25 Feb 04:11:31 04:16:12 88° 77° (ENE) 04:20:53 437.345
ITAMSAT 1 25 Feb 04:21:53 04:26:41 37° 292° (WNW) 04:31:26 435.822/435.867
STARS 25 Feb 04:22:57 04:27:18 89° 240° (WSW) 04:31:43 437.465
AO-85 25 Feb 04:36:20 04:40:55 85° 301° (WNW) 04:45:11 145.980
M-CUBED/EXP-1 PRIME 25 Feb 04:59:34 05:02:33 31° 257° (WSW) 05:05:30 437.505
CUTE-I 25 Feb 05:27:43 05:31:26 19° 92° (E) 05:35:08 437.470
AO-7 25 Feb 05:39:06 05:46:01 31° 304° (WNW) 05:52:54 .
SO-50 25 Feb 05:45:40 05:48:37 17° 41° (NE) 05:51:35 436.795
KAITUO 1B 25 Feb 05:49:51 05:52:53 23° 95° (E) 05:55:55 145.475/437.950
XW-2F 25 Feb 05:53:44 05:57:09 30° 97° (E) 06:00:31 145.980 - 146.000
XW-2D 25 Feb 05:58:02 06:01:37 37° 98° (E) 06:05:09 145.860 - 145.880
BEESAT 3 25 Feb 05:59:15 06:02:54 40° 116° (ESE) 06:06:37 437.485
XW-2B 25 Feb 06:03:01 06:06:41 41° 98° (E) 06:10:17 145.730 - 145.750
STRAND 1 25 Feb 06:05:10 06:09:53 38° 69° (ENE) 06:14:38 437.568
DOVE 4 25 Feb 06:07:05 06:11:44 56° 100° (E) 06:16:38 437.250
XW-2C 25 Feb 06:11:34 06:15:21 54° 100° (E) 06:19:04 145.795 - 145.815
AO-85 25 Feb 06:20:03 06:21:53 12° 320° (NW) 06:23:40 145.980
NUDT-PHONESAT 25 Feb 06:24:39 06:28:24 65° 100° (E) 06:32:07 437.300
LilacSat-2 25 Feb 06:28:01 06:31:53 87° 287° (WNW) 06:35:43 437.200
BEESAT 2 25 Feb 06:36:42 06:40:25 42° 117° (ESE) 06:44:13 435.950
HO-68 25 Feb 06:40:21 06:45:38 22° 92° (E) 06:50:53 435.675
CUTE 1.7 + AOD 2 25 Feb 06:49:54 06:52:35 16° 92° (E) 06:55:14 437.475
Tancredo 1 25 Feb 06:50:50 06:52:07 12° 129° (SE) 06:53:25 437.200
CUBEBUG 2 25 Feb 07:05:46 07:07:49 13° 89° (E) 07:09:52 437.445
CUTE-I 25 Feb 07:06:33 07:11:49 56° 288° (WNW) 07:17:03 437.470
KAITUO 1B 25 Feb 07:23:48 07:26:50 23° 291° (WNW) 07:29:50 145.475/437.950
SO-50 25 Feb 07:25:05 07:29:34 70° 240° (WSW) 07:34:01 436.795
XW-2F 25 Feb 07:28:25 07:31:04 18° 293° (WNW) 07:33:42 145.980 - 146.000
XW-2D 25 Feb 07:33:11 07:35:30 16° 294° (WNW) 07:37:49 145.860 - 145.880
AAUSAT CUBESAT 2 25 Feb 07:37:40 07:40:28 18° 93° (E) 07:43:15 437.432
BEESAT 3 25 Feb 07:37:43 07:40:40 20° 315° (NW) 07:43:39 437.485
XW-2B 25 Feb 07:38:26 07:40:30 14° 295° (WNW) 07:42:34 145.730 - 145.750
XW-2A 25 Feb 07:42:05 07:45:33 71° 283° (WNW) 07:48:59 145.665 - 145.685
UWE-3 25 Feb 07:42:41 07:46:03 19° 92° (E) 07:49:20 435.000/436.395/437.385
STRAND 1 25 Feb 07:44:55 07:49:09 26° 265° (W) 07:53:25 437.568
DOVE 4 25 Feb 07:46:04 07:49:02 17° 295° (WNW) 07:52:05 437.250
SEEDS 25 Feb 07:46:40 07:50:42 46° 99° (E) 07:54:42 437.485
XW-2C 25 Feb 07:47:50 07:49:03 11° 296° (WNW) 07:50:17 145.795 - 145.815
ISS 25 Feb 07:58:27 08:01:40 56° 140° (SE) 08:04:55 437.550
ZACube-1 25 Feb 08:04:23 08:07:38 19° 92° (E) 08:10:49 437.345
O/OREOS (USA 219) 25 Feb 08:10:26 08:14:49 43° 63° (ENE) 08:19:11 437.305
BEESAT 2 25 Feb 08:15:26 08:18:23 20° 315° (NW) 08:21:23 435.950
CUTE 1.7 + AOD 2 25 Feb 08:24:37 08:28:36 41° 288° (WNW) 08:32:32 437.475
Tancredo 1 25 Feb 08:24:43 08:27:58 76° 325° (NW) 08:31:14 437.200
HO-68 25 Feb 08:26:48 08:33:55 70° 290° (WNW) 08:41:00 435.675
CUBEBUG 2 25 Feb 08:40:07 08:44:52 68° 286° (WNW) 08:49:33 437.445
PRISM 25 Feb 08:42:57 08:47:00 69° 75° (ENE) 08:51:04 437.425
UNISAT 6 25 Feb 08:49:29 08:53:29 33° 69° (ENE) 08:57:36 437.425
YUBILEINY 25 Feb 08:49:47 08:55:06 18° 77° (ENE) 09:00:25 435.215
TIGRISAT 25 Feb 08:49:56 08:53:52 31° 69° (ENE) 08:57:54 435.000
AO-73 25 Feb 08:52:04 08:56:33 56° 100° (E) 09:00:56 145.935
Oscar 11 25 Feb 08:59:07 09:03:23 57° 100° (E) 09:07:37 .
FO-29 25 Feb 09:03:19 09:09:39 34° 63° (ENE) 09:16:25 435.910
DELFI C3 25 Feb 09:11:54 09:15:03 23° 95° (E) 09:18:12 145.870
AAUSAT CUBESAT 2 25 Feb 09:12:16 09:16:02 36° 289° (WNW) 09:19:47 437.432
UWE-3 25 Feb 09:18:14 09:22:40 42° 288° (WNW) 09:27:00 435.000/436.395/437.385
SEEDS 25 Feb 09:23:34 09:26:00 15° 295° (WNW) 09:28:24 437.485
ISS 25 Feb 09:35:32 09:38:20 24° 338° (NNW) 09:41:07 437.550
ZACube-1 25 Feb 09:39:46 09:44:04 41° 289° (WNW) 09:48:17 437.345
O/OREOS (USA 219) 25 Feb 09:50:42 09:53:53 19° 259° (W) 09:57:03 437.305
EO-79 25 Feb 09:53:03 09:55:12 14° 63° (ENE) 09:57:20 145.935-145.965
Tancredo 1 25 Feb 10:02:19 10:04:41 18° 344° (NNW) 10:07:02 437.200
AIST 2D 25 Feb 10:08:04 10:11:04 26° 71° (ENE) 10:14:05 435.315
NANOSAT C BR1 25 Feb 10:09:12 10:12:08 19° 66° (ENE) 10:15:06 145.865
POLYITAN 1 25 Feb 10:09:21 10:12:30 21° 66° (ENE) 10:15:40 437.675
QB50P2 25 Feb 10:12:03 10:15:25 23° 67° (ENE) 10:18:49 145.880/145.840
HO-68 25 Feb 10:17:01 10:20:22 14° 309° (NW) 10:23:44 435.675
UNISAT 6 25 Feb 10:26:34 10:30:13 24° 266° (W) 10:33:57 437.425
TIGRISAT 25 Feb 10:26:48 10:30:32 26° 266° (W) 10:34:22 435.000
AO-73 25 Feb 10:29:40 10:32:17 15° 297° (WNW) 10:34:52 145.935
Oscar 11 25 Feb 10:36:51 10:39:01 14° 297° (WNW) 10:41:12 .
BUGSAT 1 25 Feb 10:40:25 10:42:10 13° 63° (ENE) 10:43:57 437.445
YUBILEINY 25 Feb 10:41:46 10:50:36 90° 136° (SE) 10:59:28 435.215
DELFI C3 25 Feb 10:46:33 10:49:48 25° 291° (WNW) 10:53:01 145.870
FO-29 25 Feb 10:47:25 10:54:16 52° 262° (W) 11:01:48 435.910
ESTCUBE 1 25 Feb 10:56:49 11:00:30 25° 95° (E) 11:04:10 437.505/2401.250
ISS 25 Feb 11:13:54 11:15:39 14° 358° (N) 11:17:26 437.550
DUCHIFAT 1 25 Feb 11:15:31 11:19:43 89° 257° (WSW) 11:23:58 145.980
VELOX 1 25 Feb 11:23:23 11:26:00 15° 92° (E) 11:28:37 145.980
EO-79 25 Feb 11:26:20 11:30:28 55° 260° (W) 11:34:40 145.935-145.965
LO-87 25 Feb 11:30:50 11:34:22 55° 285° (WNW) 11:37:54 145.935 - 145.965
SPROUT 25 Feb 11:32:02 11:34:37 15° 92° (E) 11:37:11 437.525
Tancredo 1 25 Feb 11:40:13 11:41:56 13° 4° (N) 11:43:38 437.200
AIST 2D 25 Feb 11:41:48 11:44:17 18° 266° (W) 11:46:48 435.315
